Wind_Speed
0 5 9 9 3 4 5 8 11 11 11 10 10 9 8 11 11 10 7 3 0 3 5 8 10 12 13 14 15 17 19 20 21 21 23 23 23 25 24 23 23 22 23 25
6 9 3 0 5 6 8 10 11 8 3 5 11 11 8 10 9 7 5 3 1 3 5 9 11 12 14 15 16 17 18 20 20 21 21 21 23 25 25 25 25 25 25 26
8 2 1 5 2 5 7 9 12 11 9 13 10 16 12 9 7 6 5 2 1 4 6 7 11 13 14 16 17 18 19 21 20 22 21 22 22 22 23 28 28 26 27 27
4 3 2 3 7 5 9 4 6 8 9 7 5 5 9 12 10 10 9 6 1 2 4 7 10 13 14 16 16 17 19 20 21 22 23 24 24 26 28 27 28 30 28 27
5 4 4 7 4 3 6 7 8 9 9 8 11 7 5 5 10 12 11 5 2 3 5 7 9 11 13 15 17 17 19 20 22 23 23 24 25 27 27 29 29 27 25 24
5 1 4 2 2 3 7 7 7 7 8 9 4 6 4 4 3 7 10 6 3 1 3 5 8 10 12 15 16 17 19 20 22 24 25 25 27 30 29 29 28 27 28 26
4 4 3 3 4 6 9 6 5 5 5 7 3 8 12 2 3 4 10 7 4 1 2 5 9 11 13 15 17 18 19 20 23 24 25 26 26 26 26 26 27 29 28 28
3 5 8 4 2 4 2 5 5 6 6 11 14 8 2 6 6 7 8 5 3 2 2 5 7 9 11 14 15 17 19 20 22 24 25 25 25 24 24 25 26 26 28 31
4 3 4 3 3 2 2 4 5 9 14 12 9 6 4 3 5 6 7 7 4 1 2 3 7 7 9 11 15 15 17 18 21 23 23 25 26 25 25 25 26 28 29 34
2 3 3 2 3 6 5 7 6 5 5 9 9 11 8 4 8 10 8 8 5 3 1 2 4 6 7 12 13 14 14 17 20 20 22 23 24 26 26 26 28 29 30 35
5 3 5 4 7 8 8 9 6 7 10 11 13 5 3 4 6 11 11 9 8 6 3 2 2 4 7 9 13 13 14 18 19 20 20 21 24 25 26 26 28 31 34 34
2 2 8 11 8 6 9 11 9 6 7 5 5 12 0 3 4 5 8 9 8 7 4 3 1 3 6 9 9 12 14 16 19 18 19 20 22 24 26 28 29 33 38 36
4 4 5 6 6 6 6 2 3 6 6 14 13 10 2 3 5 6 9 10 9 8 6 4 0 3 5 6 9 11 12 13 14 18 19 20 22 25 28 29 29 33 36 37
1 7 9 10 7 6 11 13 12 13 8 15 19 25 20 21 18 13 11 13 11 9 7 5 2 2 4 5 7 9 11 13 14 14 18 19 22 25 26 28 29 31 33 37
4 8 11 13 14 14 15 15 17 19 20 20 26 24 25 24 23 20 9 14 13 11 9 7 4 2 2 4 6 8 11 12 13 14 16 17 20 22 24 27 29 31 33 37
5 6 3 6 14 16 18 14 19 23 22 23 27 28 21 17 5 3 10 15 14 12 10 8 6 5 2 4 6 7 10 12 13 15 16 17 18 20 22 23 25 29 32 35
7 7 6 11 8 10 14 15 17 16 15 14 17 16 12 10 7 6 12 14 12 12 10 8 6 4 4 4 5 7 9 11 13 15 16 18 18 20 21 22 24 27 30 32
9 11 8 8 10 11 1 2 10 14 18 19 19 20 18 6 1 5 9 12 12 12 11 10 8 6 4 4 5 6 9 10 13 14 16 18 19 20 21 22 23 24 27 30
16 12 7 7 10 15 18 10 6 11 13 12 9 10 4 4 7 5 8 9 11 11 12 11 10 8 6 5 5 7 9 9 11 12 13 15 18 19 21 22 22 22 23 25
14 14 9 9 7 10 2 2 3 5 14 7 6 6 2 6 6 4 11 10 12 14 12 12 10 9 7 6 5 7 7 8 9 10 11 11 14 16 17 19 20 20 20 20
7 9 14 13 11 9 7 3 2 6 2 3 5 3 2 6 4 9 13 13 15 14 13 12 10 8 7 6 5 6 6 6 6 8 9 11 11 12 14 15 18 18 19 19
10 7 6 8 9 11 5 6 5 4 1 4 7 4 5 4 6 12 13 13 16 15 14 12 11 9 7 6 6 6 5 5 6 7 9 10 11 12 13 13 15 17 18 18
9 10 6 6 5 3 5 11 7 5 11 12 9 6 6 9 10 11 13 12 15 15 13 11 11 10 8 6 6 6 4 4 5 7 8 10 10 11 11 13 15 15 16 18
8 8 7 9 8 15 16 14 11 8 10 8 7 8 9 12 14 14 14 13 14 14 13 12 11 10 9 7 6 6 5 4 5 6 7 8 10 10 12 12 13 15 17 16
7 4 8 13 16 17 14 15 12 8 6 5 5 7 10 12 15 16 13 15 15 14 13 12 11 10 10 8 7 5 4 4 5 5 6 7 8 9 9 11 13 12 14 16
12 15 11 11 11 13 13 7 5 6 7 7 9 9 10 14 14 18 14 17 16 15 14 12 12 12 10 9 8 6 5 4 4 4 6 6 7 7 7 7 6 9 10 11
Wind_Direction
260 278 281 333 318 323 292 272 280 287 282 287 273 285 182 185 202 198 205 216 7 18 21 12 7 4 1 0 357 353 348 347 347 344 340 336 331 326 321 315 310 307 302 299
242 267 3 289 296 272 257 277 284 283 354 256 271 272 178 195 216 215 211 204 347 14 17 13 6 5 3 358 355 351 351 349 348 345 337 333 326 322 319 318 314 311 305 299
260 64 249 295 182 250 262 278 286 282 310 261 281 262 169 197 194 187 194 182 99 15 2 7 4 4 359 358 354 350 349 348 345 342 338 335 330 328 328 326 321 316 310 302
258 82 220 243 283 276 289 14 295 282 292 290 2 289 194 170 195 208 197 198 181 13 8 7 360 359 356 354 351 350 349 346 344 344 344 340 338 333 331 325 320 315 312 308
91 171 215 265 305 268 314 296 281 285 275 300 257 258 113 161 215 208 200 183 145 30 3 360 358 353 354 355 353 351 348 346 346 348 350 346 341 339 330 328 322 318 314 309
269 206 262 268 283 231 320 277 250 257 268 258 324 277 311 172 220 164 163 175 150 50 13 3 360 354 355 359 356 354 351 348 349 354 354 352 349 343 334 331 327 324 320 318
195 201 173 228 214 208 306 297 284 251 215 268 71 288 258 111 105 160 165 164 156 130 15 13 6 354 354 1 359 357 352 349 354 355 357 357 352 345 338 335 332 329 326 326
249 180 173 144 9 319 341 325 285 291 292 299 307 266 40 65 116 120 139 162 164 151 35 20 355 350 356 4 359 357 355 352 354 358 358 360 358 351 347 341 338 339 337 331
202 200 147 182 298 278 114 269 9 285 276 273 257 262 168 149 166 176 182 177 208 185 59 17 344 353 2 0 7 360 357 356 1 359 357 1 1 358 355 353 351 345 348 349
117 244 188 163 230 225 265 341 268 221 277 282 279 291 244 202 224 204 202 199 196 182 167 360 337 359 2 10 10 9 0 9 7 359 2 0 2 4 4 4 359 356 353 360
155 203 161 223 217 266 267 272 240 281 266 275 291 284 94 197 218 207 202 185 182 185 183 260 333 3 12 11 18 1 10 17 12 6 4 4 8 9 10 14 6 6 5 5
116 250 254 255 288 291 265 269 256 246 266 251 267 278 195 218 191 206 187 176 167 170 171 224 311 19 24 18 12 357 17 22 20 10 9 12 12 12 9 11 13 12 11 11
156 206 262 220 196 206 216 156 303 284 294 266 274 268 183 226 241 239 195 187 174 168 174 187 165 41 28 10 7 5 16 23 19 14 13 15 19 20 11 8 13 19 19 15
106 245 249 264 306 296 268 269 275 274 264 274 257 278 275 280 275 251 219 190 175 173 173 172 152 71 32 19 14 12 22 26 24 19 17 13 18 22 15 12 14 20 24 22
260 257 254 260 270 265 264 264 266 265 258 256 278 276 288 291 294 291 239 179 174 174 178 175 159 110 52 33 33 25 28 29 26 25 23 21 19 23 22 18 17 24 27 31
204 248 262 257 259 263 268 262 260 257 265 266 271 279 279 283 310 287 169 176 179 178 179 170 160 142 98 52 40 34 33 32 30 29 25 23 23 26 28 25 22 27 31 31
228 243 249 273 262 288 274 243 241 256 257 265 268 281 299 291 264 202 170 180 177 174 171 162 154 146 106 65 44 40 40 38 36 33 27 26 28 30 31 31 28 30 33 36
236 238 251 274 288 260 107 275 271 279 286 283 280 267 286 321 57 153 170 170 168 168 165 156 158 147 115 84 62 52 49 46 43 36 31 28 29 32 33 36 33 33 36 36
226 239 256 250 253 273 285 278 282 288 274 319 316 328 4 123 137 135 169 164 160 159 158 158 159 151 130 104 85 68 56 50 48 38 30 27 26 29 31 35 35 36 38 39
216 230 234 236 263 273 319 334 269 286 276 47 1 356 236 194 247 122 167 150 144 147 150 153 152 147 138 125 104 85 69 55 46 40 35 31 31 30 31 29 35 36 39 41
178 209 226 238 256 265 289 2 173 251 2 24 8 6 215 241 7 130 147 140 149 149 149 149 151 146 134 127 119 99 86 67 49 44 41 38 34 35 35 31 30 32 35 37
202 210 204 237 249 267 113 142 241 2 56 334 318 236 201 195 146 145 145 148 148 148 150 150 148 142 131 127 124 109 90 76 61 53 45 42 41 39 33 29 28 27 28 32
244 229 260 233 241 28 216 267 266 225 270 296 283 219 171 173 160 146 147 155 154 153 150 152 144 138 135 131 130 120 106 87 75 58 48 46 47 42 36 34 30 28 26 28
234 256 246 279 253 266 279 272 259 271 271 291 219 249 181 167 161 157 156 158 158 155 154 150 147 144 137 133 128 121 115 104 85 69 53 49 46 44 42 39 38 35 28 28
261 268 257 269 271 281 282 264 263 247 235 216 207 183 170 167 167 165 163 162 161 156 153 156 153 148 142 139 127 119 122 112 90 72 59 52 46 44 45 49 45 46 43 38
249 247 244 256 275 294 290 305 223 204 217 197 175 166 170 172 168 166 162 165 164 159 158 156 154 151 147 145 130 111 102 113 103 75 55 43 40 35 34 33 42 46 50 42
Height
806 804 797 801 807 808 810 807 802 794 790 800 792 788 794 811 816 819 823 828 830 833 837 838 838 836 834 831 828 825 822 817 812 807 802 797 792 787 782 778 772 768 763 759
807 799 799 807 810 812 809 807 801 796 797 800 788 785 788 805 810 814 819 825 830 831 833 836 836 834 832 830 828 825 821 817 812 808 804 799 793 787 781 775 769 763 759 756
806 801 807 809 808 810 802 805 801 802 797 788 790 777 787 802 811 821 826 829 831 832 832 834 834 833 831 830 827 824 820 817 813 809 803 798 792 786 778 772 765 758 755 751
804 804 808 808 808 808 807 801 804 802 800 793 790 788 774 786 804 817 820 824 829 831 833 833 834 833 832 830 827 824 820 817 813 809 803 798 791 784 777 771 764 757 751 746
804 807 809 811 807 808 803 802 802 799 795 795 785 793 771 784 790 801 813 823 829 833 835 834 834 834 832 829 826 823 820 816 813 808 803 797 790 783 776 770 763 756 750 744
804 807 809 806 807 807 805 802 797 798 792 795 779 785 768 777 785 791 810 824 830 833 834 835 835 834 832 829 826 823 819 816 812 807 802 796 789 783 777 770 762 754 746 739
804 804 805 807 804 803 798 799 798 796 796 789 789 791 776 774 795 798 815 823 829 833 833 834 835 836 833 829 826 823 820 816 811 807 802 796 791 786 779 772 763 754 744 735
804 811 804 804 804 806 806 805 808 814 801 791 783 787 772 796 806 813 820 832 830 833 835 837 841 836 834 831 828 824 821 817 812 807 803 798 793 787 780 773 765 755 745 735
807 810 804 805 804 805 803 805 802 810 800 800 783 773 796 806 810 816 819 824 830 832 835 841 842 838 836 833 829 826 823 819 812 808 805 799 794 787 781 774 766 757 746 735
806 816 807 806 806 804 805 805 812 806 821 803 774 774 782 803 800 811 826 826 833 832 835 840 842 839 836 833 829 827 826 819 814 811 806 801 796 789 782 775 767 759 747 737
805 816 808 807 805 802 803 803 806 805 799 801 794 780 781 799 810 813 821 827 832 836 839 840 840 838 836 833 830 830 825 818 815 813 809 804 798 792 786 778 771 762 750 740
808 810 808 803 797 805 805 804 804 811 803 801 814 790 787 789 794 800 815 826 830 832 838 840 839 837 835 833 832 831 825 821 818 816 812 807 801 795 789 782 774 765 753 746
810 809 810 801 806 807 803 807 809 808 815 810 810 789 791 793 797 801 813 825 829 832 836 839 838 836 835 834 832 830 826 822 819 817 814 809 803 797 793 786 778 769 761 753
814 810 810 805 804 805 809 805 806 805 814 802 788 783 781 779 782 789 800 816 825 829 833 836 836 835 835 834 831 830 827 823 820 819 816 812 805 800 796 791 783 775 767 759
815 815 810 807 806 805 805 806 805 802 799 801 781 787 779 775 774 774 780 810 819 825 828 831 834 835 834 833 831 829 827 824 821 819 817 814 809 804 799 795 790 781 772 765
814 816 822 822 807 804 804 806 802 797 795 791 784 776 773 769 780 784 790 804 810 816 821 826 830 832 833 831 831 830 828 826 823 821 819 817 812 807 803 800 795 788 780 772
812 810 812 801 795 798 797 794 796 786 780 781 778 767 762 769 775 783 791 800 804 812 819 825 830 832 832 831 831 831 829 828 826 824 822 819 815 811 807 803 800 793 787 781
808 809 807 801 800 803 780 780 778 778 774 770 766 762 758 766 781 786 791 795 802 811 819 827 831 832 832 832 832 832 830 830 829 828 826 822 819 815 812 808 804 800 795 790
804 805 806 805 789 776 773 771 774 773 768 763 769 765 778 785 789 795 796 798 804 812 819 825 830 832 833 833 833 832 832 832 831 831 829 826 822 819 816 813 809 806 802 799
798 803 804 797 799 784 767 768 777 775 769 774 776 774 781 785 769 771 797 802 809 815 820 825 828 830 831 833 833 833 835 835 834 833 831 828 826 823 820 818 815 812 809 806
799 799 802 793 789 772 765 774 778 782 771 775 776 777 780 781 785 791 799 807 812 817 822 826 828 829 831 832 833 834 835 836 836 834 833 831 828 826 823 821 819 816 814 810
780 783 790 784 788 786 769 778 776 772 775 777 778 779 781 784 795 797 804 810 814 819 824 826 828 830 832 833 834 835 837 837 836 835 834 833 830 829 827 824 822 820 817 814
783 771 768 770 764 764 771 768 767 770 770 770 779 778 780 788 795 802 809 814 816 820 823 826 828 830 833 834 835 837 838 838 837 837 836 834 833 832 830 828 825 822 820 817
771 770 776 775 768 763 762 762 770 771 773 773 775 777 780 788 796 804 809 813 817 820 823 825 828 830 833 836 838 838 839 839 838 838 837 836 835 834 833 831 829 827 824 821
767 771 772 769 765 763 761 762 765 768 773 775 777 778 782 787 794 800 806 811 815 819 823 825 828 830 834 837 838 839 840 840 839 839 839 838 837 836 835 835 833 832 831 829
765 764 767 761 758 758 758 762 766 768 771 773 777 780 783 786 792 798 805 811 814 818 822 825 828 831 835 837 839 840 840 840 841 841 841 840 839 838 837 836 835 834 834 832